Attu

KL  EN  DA
ASIAQ
Weather Now GREENLAND SURVEY
Updated [WGT/WGST] Temperature [°C] Wind [m/s] Air pressure [hPa] Relative humidity [%] Precipitation [mm]
Present Wind chill Speed Max
21.01 18:00-15,50,0n/an/a101289n/a
21.01 17:00-16,70,0n/an/a101288n/a
21.01 16:00-17,00,0n/an/a101287n/a
21.01 15:00-16,60,0n/an/a101288n/a
21.01 14:00-15,90,0n/an/a101188n/a
21.01 13:00-16,00,0n/an/a101188n/a
21.01 12:00-16,90,0n/an/a101187n/a
21.01 11:00-17,00,0n/an/a101188n/a
21.01 10:00-18,00,0n/an/a101186n/a
21.01 09:00-18,50,0n/an/a101086n/a
21.01 08:00-18,90,0n/an/a101086n/a
21.01 07:00-19,30,0n/an/a101085n/a
21.01 06:00-19,50,0n/an/a100985n/a
21.01 05:00-19,50,0n/an/a100885n/a
21.01 04:00-19,40,0n/an/a100885n/a
21.01 03:00-19,60,0n/an/a100785n/a
21.01 02:00-19,20,0n/an/a100685n/a
21.01 01:00-19,00,0n/an/a100686n/a
21.01 00:00-19,10,0n/an/a100585n/a
20.01 23:00-18,90,0n/an/a100586n/a
20.01 22:00-18,40,0n/an/a100486n/a
20.01 21:00-18,30,0n/an/a100486n/a
20.01 20:00-18,40,0n/an/a100386n/a
20.01 19:00-18,40,0n/an/a100386n/a
20.01 18:00-18,80,0n/an/a100286n/a
Position: (67.78416666666,-53.965)

[Back]